Weather History for Milton, FL

Change the Weather History Date:

Friday, October 5, 2012

  Actual Average (KNSE) Record (KNSE)
Temperature  
Mean Temperature 74 °F -  
Max Temperature 86 °F 79 °F 90 °F (2013)
Min Temperature 64 °F 61 °F 48 °F (2010)
Cooling Degree Days 9    
Growing Degree Days 24 (Base 50)    
Moisture  
Dew Point 67 °F    
Average Humidity 86    
Maximum Humidity 100    
Minimum Humidity 57    
Precipitation  
Precipitation 0.00 in - - ()
Sea Level Pressure  
Sea Level Pressure 30.06 in    
Wind  
Wind Speed 3 mph (NE)    
Max Wind Speed 12 mph    
Max Gust Speed -    
Visibility 7 miles    
Events Fog    
Averages and records for this station are not official NWS values.
T = Trace of Precipitation, MM = Missing Value Source: NWS Daily Summary

Daily Weather History Graph

Daily Weather History Graph

Search for Another Location

Airport:

Trip Planner

Search our weather history database for the weather conditions in past years. The results will help you decide how hot, cold, wet, or windy it might be!

Date:

Astronomy

Oct. 05, 2012 Rise Set
Actual Time 6:44 AM CDT 6:27 PM CDT
Civil Twilight 6:20 AM CDT 6:51 PM CDT
Nautical Twilight 5:52 AM CDT 7:19 PM CDT
Astronomical Twilight 5:24 AM CDT 7:47 PM CDT
Moon 10:09 PM CDT (10/5) 11:33 AM CDT (10/5)
Length of Visible Light 12h 31m
Length of Day
11h 43m
Waning Gibbous, 74% of the Moon is Illuminated
Oct 5
Waning Gibbous
Oct 8
Last Quarter
Oct 15
New
Oct 21
First Quarter
Oct 29
Full

Hourly Weather History & Observations

Time (CDT) Temp. Heat Index Dew Point Humidity Pressure Visibility Wind Dir Wind Speed Gust Speed Precip Events Conditions
12:56 AM 64.0 °F - 61.0 °F 90% 30.11 in 10.0 mi Calm Calm - N/A   Clear
1:56 AM 64.0 °F - 61.0 °F 90% 30.10 in 10.0 mi Calm Calm - N/A   Clear
2:56 AM 66.0 °F - 62.1 °F 87% 30.08 in 10.0 mi NNE 3.5 mph - N/A   Clear
3:56 AM 64.9 °F - 62.1 °F 90% 30.08 in 10.0 mi Calm Calm - N/A   Clear
4:56 AM 64.0 °F - 61.0 °F 90% 30.08 in 10.0 mi North 4.6 mph - N/A   Clear
5:47 AM 64.4 °F - 62.6 °F 94% 30.12 in 10.0 mi North 5.8 mph - N/A   Scattered Clouds
5:56 AM 64.9 °F - 62.1 °F 90% 30.09 in 10.0 mi NNE 4.6 mph - N/A   Scattered Clouds
6:07 AM 64.4 °F - 62.6 °F 94% 30.13 in 10.0 mi NNE 4.6 mph - N/A   Mostly Cloudy
6:50 AM 64.4 °F - 62.6 °F 94% 30.13 in 1.8 mi NNE 3.5 mph - N/A   Overcast
6:56 AM 64.9 °F - 63.0 °F 93% 30.09 in 1.5 mi NNE 3.5 mph - N/A   Overcast
7:14 AM 64.4 °F - 62.6 °F 94% 30.13 in 0.8 mi NNE 5.8 mph - N/A   Overcast
7:24 AM 64.4 °F - 64.4 °F 100% 30.13 in 2.0 mi North 4.6 mph - N/A   Overcast
7:41 AM 64.4 °F - 62.6 °F 94% 30.13 in 1.2 mi NNW 3.5 mph - N/A   Overcast
7:56 AM 64.9 °F - 64.0 °F 97% 30.10 in 1.0 mi North 4.6 mph - N/A   Overcast
8:10 AM 66.2 °F - 64.4 °F 94% 30.14 in 3.0 mi NNE 5.8 mph - N/A   Overcast
8:56 AM 69.1 °F - 66.0 °F 90% 30.10 in 10.0 mi NNE 5.8 mph - N/A   Mostly Cloudy
9:18 AM 71.6 °F - 66.2 °F 83% 30.14 in 10.0 mi NE 5.8 mph - N/A   Scattered Clouds
9:56 AM 73.9 °F - 68.0 °F 82% 30.10 in 10.0 mi ENE 11.5 mph - N/A   Clear
10:56 AM 78.1 °F - 69.1 °F 74% 30.10 in 10.0 mi ESE 5.8 mph - N/A   Clear
11:56 AM 79.0 °F - 70.0 °F 74% 30.08 in 10.0 mi East 6.9 mph - N/A   Mostly Cloudy
12:52 PM 82.4 °F 87.2 °F 71.6 °F 70% 30.09 in 10.0 mi NE 6.9 mph - N/A   Mostly Cloudy
12:56 PM 82.0 °F 85.9 °F 70.0 °F 67% 30.05 in 10.0 mi ENE 5.8 mph - N/A   Mostly Cloudy
1:44 PM 82.4 °F 86.3 °F 69.8 °F 66% 30.07 in 10.0 mi ESE 6.9 mph - N/A   Overcast
1:56 PM 82.9 °F 87.0 °F 70.0 °F 65% 30.01 in 10.0 mi Variable 5.8 mph - N/A   Mostly Cloudy
2:56 PM 84.0 °F 87.0 °F 68.0 °F 58% 29.98 in 10.0 mi SE 3.5 mph - N/A   Scattered Clouds
3:56 PM 84.9 °F 88.2 °F 68.0 °F 57% 29.96 in 10.0 mi Calm Calm - N/A   Overcast
4:56 PM 82.0 °F 85.9 °F 70.0 °F 67% 29.96 in 10.0 mi SE 8.1 mph - N/A   Overcast
5:56 PM 79.0 °F - 72.0 °F 79% 29.96 in 10.0 mi South 4.6 mph - N/A   Mostly Cloudy
6:56 PM 75.9 °F - 72.0 °F 87% 29.96 in 10.0 mi South 4.6 mph - N/A   Clear
7:56 PM 73.9 °F - 71.1 °F 91% 29.97 in 10.0 mi South 3.5 mph - N/A   Clear
8:56 PM 73.9 °F - 72.0 °F 93% 29.99 in 10.0 mi Calm Calm - N/A   Clear
9:53 PM 71.6 °F - 69.8 °F 94% 30.03 in 1.5 mi Calm Calm - N/A   Clear
9:56 PM 71.1 °F - 69.1 °F 93% 29.99 in 1.0 mi Calm Calm - N/A   Clear
10:03 PM 71.6 °F - 69.8 °F 94% 30.03 in 0.8 mi Calm Calm - N/A   Clear
10:24 PM 71.6 °F - 69.8 °F 94% 30.03 in 0.8 mi Calm Calm - N/A   Mist
10:56 PM 70.0 °F - 69.1 °F 97% 29.99 in 0.5 mi Calm Calm - N/A Fog Fog
11:32 PM 69.8 °F - 69.8 °F 100% 30.03 in 0.8 mi Calm Calm - N/A   Clear
11:53 PM 68.0 °F - 66.2 °F 94% 30.03 in 1.5 mi Calm Calm - N/A   Clear
11:56 PM 68.0 °F - 66.9 °F 96% 29.99 in 1.2 mi Calm Calm - N/A   Clear